Year,Month,Day,Hour,Minute,Value (Times are PST for temperature in C)
2023,03,28,00,00,5.20
2023,03,28,00,01,5.10
2023,03,28,00,02,5.10
2023,03,28,00,03,5.10
2023,03,28,00,04,5.10
2023,03,28,00,05,5.10
2023,03,28,00,06,5.00
2023,03,28,00,07,5.00
2023,03,28,00,08,5.00
2023,03,28,00,09,5.00
2023,03,28,00,10,5.00
2023,03,28,00,11,5.00
2023,03,28,00,12,5.00
2023,03,28,00,13,5.00
2023,03,28,00,14,5.00
2023,03,28,00,15,5.00
2023,03,28,00,16,5.00
2023,03,28,00,17,5.00
2023,03,28,00,18,5.00
2023,03,28,00,19,4.90
2023,03,28,00,20,4.90
2023,03,28,00,21,4.90
2023,03,28,00,22,4.90
2023,03,28,00,23,4.90
2023,03,28,00,24,4.90
2023,03,28,00,25,4.80
2023,03,28,00,26,4.90
2023,03,28,00,27,4.90
2023,03,28,00,28,4.90
2023,03,28,00,29,4.90
2023,03,28,00,30,4.90
2023,03,28,00,31,4.90
2023,03,28,00,32,4.90
2023,03,28,00,33,4.90
2023,03,28,00,34,4.90
2023,03,28,00,35,4.90
2023,03,28,00,36,4.80
2023,03,28,00,37,4.80
2023,03,28,00,38,4.80
2023,03,28,00,39,4.80
2023,03,28,00,40,4.80
2023,03,28,00,41,4.80
2023,03,28,00,42,4.80
2023,03,28,00,43,4.70
2023,03,28,00,44,4.70
2023,03,28,00,45,4.70
2023,03,28,00,46,4.70
2023,03,28,00,47,4.70
2023,03,28,00,48,4.70
2023,03,28,00,49,4.70
2023,03,28,00,50,4.70
2023,03,28,00,51,4.70
2023,03,28,00,52,4.80
2023,03,28,00,53,4.80
2023,03,28,00,54,4.80
2023,03,28,00,55,4.80
2023,03,28,00,56,4.80
2023,03,28,00,57,4.80
2023,03,28,00,58,4.80
2023,03,28,00,59,4.80
2023,03,28,01,00,4.80
2023,03,28,01,01,4.80
2023,03,28,01,02,4.80
2023,03,28,01,03,4.80
2023,03,28,01,04,4.80
2023,03,28,01,05,4.80
2023,03,28,01,06,4.80
2023,03,28,01,07,4.80
2023,03,28,01,08,4.80
2023,03,28,01,09,4.80
2023,03,28,01,10,4.80
2023,03,28,01,11,4.80
2023,03,28,01,12,4.80
2023,03,28,01,13,4.70
2023,03,28,01,14,4.70
2023,03,28,01,15,4.70
2023,03,28,01,16,4.70
2023,03,28,01,17,4.70
2023,03,28,01,18,4.70
2023,03,28,01,19,4.70
2023,03,28,01,20,4.70
2023,03,28,01,21,4.70
2023,03,28,01,22,4.70
2023,03,28,01,23,4.70
2023,03,28,01,24,4.70
2023,03,28,01,25,4.70
2023,03,28,01,26,4.70
2023,03,28,01,27,4.70
2023,03,28,01,28,4.70
2023,03,28,01,29,4.70
2023,03,28,01,30,4.70
2023,03,28,01,31,4.60
2023,03,28,01,32,4.60
2023,03,28,01,33,4.60
2023,03,28,01,34,4.50
2023,03,28,01,35,4.50
2023,03,28,01,36,4.40
2023,03,28,01,37,4.40
2023,03,28,01,38,4.30
2023,03,28,01,39,4.30
2023,03,28,01,40,4.30
2023,03,28,01,41,4.20
2023,03,28,01,42,4.20
2023,03,28,01,43,4.20
2023,03,28,01,44,4.20
2023,03,28,01,45,4.10
2023,03,28,01,46,4.10
2023,03,28,01,47,4.10
2023,03,28,01,48,4.00
2023,03,28,01,49,4.00
2023,03,28,01,50,4.00
2023,03,28,01,51,3.90
2023,03,28,01,52,3.90
2023,03,28,01,53,3.90
2023,03,28,01,54,3.80
2023,03,28,01,55,3.80
2023,03,28,01,56,3.80
2023,03,28,01,57,3.70
2023,03,28,01,58,3.70
2023,03,28,01,59,3.70
2023,03,28,02,00,3.60
2023,03,28,02,01,3.60
2023,03,28,02,02,3.60
2023,03,28,02,03,3.60
2023,03,28,02,04,3.50
2023,03,28,02,05,3.50
2023,03,28,02,06,3.50
2023,03,28,02,07,3.40
2023,03,28,02,08,3.40
2023,03,28,02,09,3.40
2023,03,28,02,10,3.30
2023,03,28,02,11,3.30
2023,03,28,02,12,3.30
2023,03,28,02,13,3.30
2023,03,28,02,14,3.30
2023,03,28,02,15,3.30
2023,03,28,02,16,3.20
2023,03,28,02,17,3.20
2023,03,28,02,18,3.20
2023,03,28,02,19,3.20
2023,03,28,02,20,3.20
2023,03,28,02,21,3.20
2023,03,28,02,22,3.20
2023,03,28,02,23,3.10
2023,03,28,02,24,3.10
2023,03,28,02,25,3.10
2023,03,28,02,26,3.10
2023,03,28,02,27,3.10
2023,03,28,02,28,3.10
2023,03,28,02,29,3.10
2023,03,28,02,30,3.10
2023,03,28,02,31,3.10
2023,03,28,02,32,3.10
2023,03,28,02,33,3.10
2023,03,28,02,34,3.10
2023,03,28,02,35,3.10
2023,03,28,02,36,3.10
2023,03,28,02,37,3.10
2023,03,28,02,38,3.00
2023,03,28,02,39,3.00
2023,03,28,02,40,3.00
2023,03,28,02,41,3.00
2023,03,28,02,42,3.00
2023,03,28,02,43,3.00
2023,03,28,02,44,2.90
2023,03,28,02,45,2.90
2023,03,28,02,46,2.90
2023,03,28,02,47,2.90
2023,03,28,02,48,2.90
2023,03,28,02,49,2.90
2023,03,28,02,50,2.90
2023,03,28,02,51,2.90
2023,03,28,02,52,2.80
2023,03,28,02,53,2.80
2023,03,28,02,54,2.80
2023,03,28,02,55,2.80
2023,03,28,02,56,2.80
2023,03,28,02,57,2.80
2023,03,28,02,58,2.80
2023,03,28,02,59,2.80
2023,03,28,03,00,2.80
2023,03,28,03,01,2.80
2023,03,28,03,02,2.80
2023,03,28,03,03,2.90
2023,03,28,03,04,2.90
2023,03,28,03,05,2.90
2023,03,28,03,06,2.90
2023,03,28,03,07,2.90
2023,03,28,03,08,2.90
2023,03,28,03,09,3.00
2023,03,28,03,10,3.00
2023,03,28,03,11,3.00
2023,03,28,03,12,3.00
2023,03,28,03,13,3.00
2023,03,28,03,14,3.00
2023,03,28,03,15,3.00
2023,03,28,03,16,3.00
2023,03,28,03,17,3.00
2023,03,28,03,18,3.00
2023,03,28,03,19,3.00
2023,03,28,03,20,3.00
2023,03,28,03,21,3.00
2023,03,28,03,22,3.00
2023,03,28,03,23,2.90
2023,03,28,03,24,2.90
2023,03,28,03,25,2.90
2023,03,28,03,26,2.90
2023,03,28,03,27,2.90
2023,03,28,03,28,2.90
2023,03,28,03,29,2.90
2023,03,28,03,30,2.80
2023,03,28,03,31,2.80
2023,03,28,03,32,2.80
2023,03,28,03,33,2.80
2023,03,28,03,34,2.80
2023,03,28,03,35,2.80
2023,03,28,03,36,2.80
2023,03,28,03,37,2.80
2023,03,28,03,38,2.80
2023,03,28,03,39,2.80
2023,03,28,03,40,2.80
2023,03,28,03,41,2.80
2023,03,28,03,42,2.80
2023,03,28,03,43,2.80
2023,03,28,03,44,2.90
2023,03,28,03,45,2.90
2023,03,28,03,46,2.90
2023,03,28,03,47,2.90
2023,03,28,03,48,2.90
2023,03,28,03,49,2.90
2023,03,28,03,50,2.90
2023,03,28,03,51,2.90
2023,03,28,03,52,2.90
2023,03,28,03,53,2.90
2023,03,28,03,54,2.90
2023,03,28,03,55,3.00
2023,03,28,03,56,3.00
2023,03,28,03,57,3.00
2023,03,28,03,58,3.10
2023,03,28,03,59,3.10
2023,03,28,04,00,3.10
2023,03,28,04,01,3.10
2023,03,28,04,02,3.20
2023,03,28,04,03,3.20
2023,03,28,04,04,3.20
2023,03,28,04,05,3.20
2023,03,28,04,06,3.20
2023,03,28,04,07,3.20
2023,03,28,04,08,3.20
2023,03,28,04,09,3.20
2023,03,28,04,10,3.20
2023,03,28,04,11,3.30
2023,03,28,04,12,3.30
2023,03,28,04,13,3.30
2023,03,28,04,14,3.30
2023,03,28,04,15,3.30
2023,03,28,04,16,3.30
2023,03,28,04,17,3.40
2023,03,28,04,18,3.40
2023,03,28,04,19,3.40
2023,03,28,04,20,3.40
2023,03,28,04,21,3.40
2023,03,28,04,22,3.40
2023,03,28,04,23,3.40
2023,03,28,04,24,3.50
2023,03,28,04,25,3.50
2023,03,28,04,26,3.50
2023,03,28,04,27,3.50
2023,03,28,04,28,3.60
2023,03,28,04,29,3.60
2023,03,28,04,30,3.60
2023,03,28,04,31,3.60
2023,03,28,04,32,3.70
2023,03,28,04,33,3.70
2023,03,28,04,34,3.70
2023,03,28,04,35,3.80
2023,03,28,04,36,3.80
2023,03,28,04,37,3.80
2023,03,28,04,38,3.80
2023,03,28,04,39,3.80
2023,03,28,04,40,3.80
2023,03,28,04,41,3.80
2023,03,28,04,42,3.80
2023,03,28,04,43,3.80
2023,03,28,04,44,3.80
2023,03,28,04,45,3.80
2023,03,28,04,46,3.80
2023,03,28,04,47,3.80
2023,03,28,04,48,3.80
2023,03,28,04,49,3.80
2023,03,28,04,50,3.80
2023,03,28,04,51,3.80
2023,03,28,04,52,3.80
2023,03,28,04,53,3.80
2023,03,28,04,54,3.80
2023,03,28,04,55,3.80
2023,03,28,04,56,3.80
2023,03,28,04,57,3.80
2023,03,28,04,58,3.80
2023,03,28,04,59,3.80
2023,03,28,05,00,3.80
2023,03,28,05,01,3.80
2023,03,28,05,02,3.70
2023,03,28,05,03,3.70
2023,03,28,05,04,3.70
2023,03,28,05,05,3.70
2023,03,28,05,06,3.70
2023,03,28,05,07,3.70
2023,03,28,05,08,3.70
2023,03,28,05,09,3.70
2023,03,28,05,10,3.70
2023,03,28,05,11,3.70
2023,03,28,05,12,3.70
2023,03,28,05,13,3.70
2023,03,28,05,14,3.70
2023,03,28,05,15,3.70
2023,03,28,05,16,3.70
2023,03,28,05,17,3.70
2023,03,28,05,18,3.70
2023,03,28,05,19,3.70
2023,03,28,05,20,3.80
2023,03,28,05,21,3.80
2023,03,28,05,22,3.80
2023,03,28,05,23,3.80
2023,03,28,05,24,3.80
2023,03,28,05,25,3.80
2023,03,28,05,26,3.80
2023,03,28,05,27,3.80
2023,03,28,05,28,3.80
2023,03,28,05,29,3.80
2023,03,28,05,30,3.80
2023,03,28,05,31,3.80
2023,03,28,05,32,3.80
2023,03,28,05,33,3.80
2023,03,28,05,34,3.80
2023,03,28,05,35,3.80
2023,03,28,05,36,3.80
2023,03,28,05,37,3.80
2023,03,28,05,38,3.80
2023,03,28,05,39,3.80
2023,03,28,05,40,3.80
2023,03,28,05,41,3.80
2023,03,28,05,42,3.80
2023,03,28,05,43,3.80
2023,03,28,05,44,3.80
2023,03,28,05,45,3.90
2023,03,28,05,46,3.90
2023,03,28,05,47,4.00
2023,03,28,05,48,4.00
2023,03,28,05,49,4.00
2023,03,28,05,50,4.10
2023,03,28,05,51,4.10
2023,03,28,05,52,4.20
2023,03,28,05,53,4.30
2023,03,28,05,54,4.30
2023,03,28,05,55,4.40
2023,03,28,05,56,4.40
2023,03,28,05,57,4.40
2023,03,28,05,58,4.50
2023,03,28,05,59,4.50
2023,03,28,06,00,4.50
2023,03,28,06,01,4.50
2023,03,28,06,02,4.50
2023,03,28,06,03,4.50
2023,03,28,06,04,4.50
2023,03,28,06,05,4.50
2023,03,28,06,06,4.50
2023,03,28,06,07,4.40
2023,03,28,06,08,4.40
2023,03,28,06,09,4.50
2023,03,28,06,10,4.50
2023,03,28,06,11,4.60
2023,03,28,06,12,4.60
2023,03,28,06,13,4.60
2023,03,28,06,14,4.60
2023,03,28,06,15,4.60
2023,03,28,06,16,4.50
2023,03,28,06,17,4.50
2023,03,28,06,18,4.50
2023,03,28,06,19,4.50
2023,03,28,06,20,4.40
2023,03,28,06,21,4.40
2023,03,28,06,22,4.40
2023,03,28,06,23,4.40
2023,03,28,06,24,4.40
2023,03,28,06,25,4.40
2023,03,28,06,26,4.40
2023,03,28,06,27,4.40
2023,03,28,06,28,4.40
2023,03,28,06,29,4.40
2023,03,28,06,30,4.40
2023,03,28,06,31,4.40
2023,03,28,06,32,4.40
2023,03,28,06,33,4.40
2023,03,28,06,34,4.30
2023,03,28,06,35,4.30
2023,03,28,06,36,4.30
2023,03,28,06,37,4.30
2023,03,28,06,38,4.40
2023,03,28,06,39,4.40
2023,03,28,06,40,4.40
2023,03,28,06,41,4.40
2023,03,28,06,42,4.40
2023,03,28,06,43,4.50
2023,03,28,06,44,4.50
2023,03,28,06,45,4.60
2023,03,28,06,46,4.60
2023,03,28,06,47,4.60
2023,03,28,06,48,4.70
2023,03,28,06,49,4.70
2023,03,28,06,50,4.70
2023,03,28,06,51,4.70
2023,03,28,06,52,4.60
2023,03,28,06,53,4.60
2023,03,28,06,54,4.60
2023,03,28,06,55,4.60
2023,03,28,06,56,4.60
2023,03,28,06,57,4.50
2023,03,28,06,58,4.50
2023,03,28,06,59,4.50
2023,03,28,07,00,4.50
2023,03,28,07,01,4.50
2023,03,28,07,02,4.50
2023,03,28,07,03,4.50
2023,03,28,07,04,4.50
2023,03,28,07,05,4.40
2023,03,28,07,06,4.40
2023,03,28,07,07,4.40
2023,03,28,07,08,4.40
2023,03,28,07,09,4.40
2023,03,28,07,10,4.40
2023,03,28,07,11,4.50
2023,03,28,07,12,4.50
2023,03,28,07,13,4.50
2023,03,28,07,14,4.60
2023,03,28,07,15,4.60
2023,03,28,07,16,4.70
2023,03,28,07,17,4.70
2023,03,28,07,18,4.80
2023,03,28,07,19,4.80
2023,03,28,07,20,4.80
2023,03,28,07,21,4.80
2023,03,28,07,22,4.80
2023,03,28,07,23,4.90
2023,03,28,07,24,5.00
2023,03,28,07,25,5.10
2023,03,28,07,26,5.20
2023,03,28,07,27,5.30
2023,03,28,07,28,5.30
2023,03,28,07,29,5.40
2023,03,28,07,30,5.40
2023,03,28,07,31,5.50
2023,03,28,07,32,5.60
2023,03,28,07,33,5.60
2023,03,28,07,34,5.60
2023,03,28,07,35,5.70
2023,03,28,07,36,5.70
2023,03,28,07,37,5.70
2023,03,28,07,38,5.80
2023,03,28,07,39,5.80
2023,03,28,07,40,5.80
2023,03,28,07,41,5.90
2023,03,28,07,42,5.90
2023,03,28,07,43,5.90
2023,03,28,07,44,5.90
2023,03,28,07,45,5.90
2023,03,28,07,46,6.00
2023,03,28,07,47,6.00
2023,03,28,07,48,6.10
2023,03,28,07,49,6.10
2023,03,28,07,50,6.20
2023,03,28,07,51,6.20
2023,03,28,07,52,6.30
2023,03,28,07,53,6.30
2023,03,28,07,54,6.30
2023,03,28,07,55,6.30
2023,03,28,07,56,6.30
2023,03,28,07,57,6.40
2023,03,28,07,58,6.40
2023,03,28,07,59,6.40
2023,03,28,08,00,6.50
2023,03,28,08,01,6.50
2023,03,28,08,02,6.50
2023,03,28,08,03,6.60
2023,03,28,08,04,6.60
2023,03,28,08,05,6.60
2023,03,28,08,06,6.60
2023,03,28,08,07,6.60
2023,03,28,08,08,6.70
2023,03,28,08,09,6.70
2023,03,28,08,10,6.80
2023,03,28,08,11,6.80
2023,03,28,08,12,6.80
2023,03,28,08,13,6.90
2023,03,28,08,14,6.90
2023,03,28,08,15,7.00
2023,03,28,08,16,7.00
2023,03,28,08,17,7.00
2023,03,28,08,18,7.00
2023,03,28,08,19,7.10
2023,03,28,08,20,7.10
2023,03,28,08,21,7.10
2023,03,28,08,22,7.10
2023,03,28,08,23,7.10
2023,03,28,08,24,7.10
2023,03,28,08,25,7.10
2023,03,28,08,26,7.10
2023,03,28,08,27,7.10
2023,03,28,08,28,7.10
2023,03,28,08,29,7.10
2023,03,28,08,30,7.10
2023,03,28,08,31,7.20
2023,03,28,08,32,7.20
2023,03,28,08,33,7.20
2023,03,28,08,34,7.10
2023,03,28,08,35,7.10
2023,03,28,08,36,7.20
2023,03,28,08,37,7.20
2023,03,28,08,38,7.20
2023,03,28,08,39,7.20
2023,03,28,08,40,7.20
2023,03,28,08,41,7.20
2023,03,28,08,42,7.20
2023,03,28,08,43,7.20
2023,03,28,08,44,7.30
2023,03,28,08,45,7.30
2023,03,28,08,46,7.30
2023,03,28,08,47,7.40
2023,03,28,08,48,7.40
2023,03,28,08,49,7.40
2023,03,28,08,50,7.50
2023,03,28,08,51,7.50
2023,03,28,08,52,7.60
2023,03,28,08,53,7.60
2023,03,28,08,54,7.60
2023,03,28,08,55,7.60
2023,03,28,08,56,7.60
2023,03,28,08,57,7.70
2023,03,28,08,58,7.70
2023,03,28,08,59,7.80
2023,03,28,09,00,7.80
2023,03,28,09,01,7.90
2023,03,28,09,02,7.90
2023,03,28,09,03,8.00
2023,03,28,09,04,8.00
2023,03,28,09,05,8.10
2023,03,28,09,06,8.10
2023,03,28,09,07,8.10
2023,03,28,09,08,8.20
2023,03,28,09,09,8.20
2023,03,28,09,10,8.30
2023,03,28,09,11,8.30
2023,03,28,09,12,8.30
2023,03,28,09,13,8.40
2023,03,28,09,14,8.40
2023,03,28,09,15,8.50
2023,03,28,09,16,8.60
2023,03,28,09,17,8.60
2023,03,28,09,18,8.70
2023,03,28,09,19,8.70
2023,03,28,09,20,8.70
2023,03,28,09,21,8.80
2023,03,28,09,22,8.80
2023,03,28,09,23,8.80
2023,03,28,09,24,8.80
2023,03,28,09,25,8.90
2023,03,28,09,26,8.90
2023,03,28,09,27,9.00
2023,03,28,09,28,9.00
2023,03,28,09,29,9.10
2023,03,28,09,30,9.10
2023,03,28,09,31,9.10
2023,03,28,09,32,9.10
2023,03,28,09,33,9.10
2023,03,28,09,34,9.20
2023,03,28,09,35,9.20
2023,03,28,09,36,9.30
2023,03,28,09,37,9.30
2023,03,28,09,38,9.40
2023,03,28,09,39,9.50
2023,03,28,09,40,9.60
2023,03,28,09,41,9.60
2023,03,28,09,42,9.70
2023,03,28,09,43,9.70
2023,03,28,09,44,9.70
2023,03,28,09,45,9.80
2023,03,28,09,46,9.90
2023,03,28,09,47,10.00
2023,03,28,09,48,10.10
2023,03,28,09,49,10.20
2023,03,28,09,50,10.20
2023,03,28,09,51,10.30
2023,03,28,09,52,10.30
2023,03,28,09,53,10.30
2023,03,28,09,54,10.40
2023,03,28,09,55,10.40
2023,03,28,09,56,10.50
2023,03,28,09,57,10.50
2023,03,28,09,58,10.60
2023,03,28,09,59,10.60
2023,03,28,10,00,10.60
2023,03,28,10,01,10.60
2023,03,28,10,02,10.70
2023,03,28,10,03,10.70
2023,03,28,10,04,10.70
2023,03,28,10,05,10.70
2023,03,28,10,06,10.70
2023,03,28,10,07,10.80
2023,03,28,10,08,10.80
2023,03,28,10,09,10.80
2023,03,28,10,10,10.90
2023,03,28,10,11,10.90
2023,03,28,10,12,11.00
2023,03,28,10,13,11.00
2023,03,28,10,14,11.00
2023,03,28,10,15,11.10
2023,03,28,10,16,11.20
2023,03,28,10,17,11.20
2023,03,28,10,18,11.30
2023,03,28,10,19,11.30
2023,03,28,10,20,11.40
2023,03,28,10,21,11.50
2023,03,28,10,22,11.50
2023,03,28,10,23,11.60
2023,03,28,10,24,11.60
2023,03,28,10,25,11.70
2023,03,28,10,26,11.70
2023,03,28,10,27,11.70
2023,03,28,10,28,11.70
2023,03,28,10,29,11.80
2023,03,28,10,30,11.80
2023,03,28,10,31,11.80
2023,03,28,10,32,11.80
2023,03,28,10,33,11.90
2023,03,28,10,34,11.90
2023,03,28,10,35,11.90
2023,03,28,10,36,12.00
2023,03,28,10,37,12.00
2023,03,28,10,38,12.10
2023,03,28,10,39,12.10
2023,03,28,10,40,12.20
2023,03,28,10,41,12.20
2023,03,28,10,42,12.20
2023,03,28,10,43,12.20
2023,03,28,10,44,12.30
2023,03,28,10,45,12.30
2023,03,28,10,46,12.30
2023,03,28,10,47,12.40
2023,03,28,10,48,12.40
2023,03,28,10,49,12.40
2023,03,28,10,50,12.50
2023,03,28,10,51,12.50
2023,03,28,10,52,12.60
2023,03,28,10,53,12.60
2023,03,28,10,54,12.60
2023,03,28,10,55,12.70
2023,03,28,10,56,12.80
2023,03,28,10,57,12.80
2023,03,28,10,58,12.80
2023,03,28,10,59,12.80
2023,03,28,11,00,12.80
2023,03,28,11,01,12.90
2023,03,28,11,02,12.90
2023,03,28,11,03,12.90
2023,03,28,11,04,12.90
2023,03,28,11,05,12.90
2023,03,28,11,06,13.00
2023,03,28,11,07,13.00
2023,03,28,11,08,13.00
2023,03,28,11,09,13.00
2023,03,28,11,10,13.10
2023,03,28,11,11,13.10
2023,03,28,11,12,13.10
2023,03,28,11,13,13.10
2023,03,28,11,14,13.20
2023,03,28,11,15,13.20
2023,03,28,11,16,13.20
2023,03,28,11,17,13.10
2023,03,28,11,18,13.10
2023,03,28,11,19,13.10
2023,03,28,11,20,13.10
2023,03,28,11,21,13.20
2023,03,28,11,22,13.20
2023,03,28,11,23,13.20
2023,03,28,11,24,13.30
2023,03,28,11,25,13.30
2023,03,28,11,26,13.40
2023,03,28,11,27,13.40
2023,03,28,11,28,13.40
2023,03,28,11,29,13.30
2023,03,28,11,30,13.30
2023,03,28,11,31,13.30
2023,03,28,11,32,13.40
2023,03,28,11,33,13.40
2023,03,28,11,34,13.40
2023,03,28,11,35,13.40
2023,03,28,11,36,13.40
2023,03,28,11,37,13.50
2023,03,28,11,38,13.50
2023,03,28,11,39,13.50
2023,03,28,11,40,13.50
2023,03,28,11,41,13.50
2023,03,28,11,42,13.50
2023,03,28,11,43,13.60
2023,03,28,11,44,13.60
2023,03,28,11,45,13.60
2023,03,28,11,46,13.70
2023,03,28,11,47,13.70
2023,03,28,11,48,13.70
2023,03,28,11,49,13.80
2023,03,28,11,50,13.80
2023,03,28,11,51,13.90
2023,03,28,11,52,13.90
2023,03,28,11,53,13.90
2023,03,28,11,54,13.90
2023,03,28,11,55,13.80
2023,03,28,11,56,13.80
2023,03,28,11,57,13.80
2023,03,28,11,58,13.80
2023,03,28,11,59,13.80
2023,03,28,12,00,13.90
2023,03,28,12,01,14.00
2023,03,28,12,02,14.00
2023,03,28,12,03,14.00
2023,03,28,12,04,13.90
2023,03,28,12,05,13.80
2023,03,28,12,06,13.80
2023,03,28,12,07,13.90
2023,03,28,12,08,13.90
2023,03,28,12,09,13.90
2023,03,28,12,10,13.90
2023,03,28,12,11,14.00
2023,03,28,12,12,14.10
2023,03,28,12,13,14.10
2023,03,28,12,14,14.20
2023,03,28,12,15,14.30
2023,03,28,12,16,14.40
2023,03,28,12,17,14.50
2023,03,28,12,18,14.50
2023,03,28,12,19,14.60
2023,03,28,12,20,14.60
2023,03,28,12,21,14.60
2023,03,28,12,22,14.60
2023,03,28,12,23,14.60
2023,03,28,12,24,14.70
2023,03,28,12,25,14.70
2023,03,28,12,26,14.80
2023,03,28,12,27,14.80
2023,03,28,12,28,14.90
2023,03,28,12,29,14.90
2023,03,28,12,30,14.90
2023,03,28,12,31,15.00
2023,03,28,12,32,15.00
2023,03,28,12,33,15.10
2023,03,28,12,34,15.20
2023,03,28,12,35,15.30
2023,03,28,12,36,15.40
2023,03,28,12,37,15.40
2023,03,28,12,38,15.50
2023,03,28,12,39,15.60
2023,03,28,12,40,15.60
2023,03,28,12,41,15.70
2023,03,28,12,42,15.60
2023,03,28,12,43,15.60
2023,03,28,12,44,15.60
2023,03,28,12,45,15.60
2023,03,28,12,46,15.50
2023,03,28,12,47,15.40
2023,03,28,12,48,15.50
2023,03,28,12,49,15.50
2023,03,28,12,50,15.50
2023,03,28,12,51,15.50
2023,03,28,12,52,15.50
2023,03,28,12,53,15.60
2023,03,28,12,54,15.60
2023,03,28,12,55,15.60
2023,03,28,12,56,15.60
2023,03,28,12,57,15.60
2023,03,28,12,58,15.50
2023,03,28,12,59,15.50
2023,03,28,13,00,15.40
2023,03,28,13,01,15.30
2023,03,28,13,02,15.30
2023,03,28,13,03,15.20
2023,03,28,13,04,15.10
2023,03,28,13,05,15.10
2023,03,28,13,06,15.10
2023,03,28,13,07,15.10
2023,03,28,13,08,15.10
2023,03,28,13,09,15.10
2023,03,28,13,10,15.00
2023,03,28,13,11,15.00
2023,03,28,13,12,14.90
2023,03,28,13,13,14.90
2023,03,28,13,14,14.90
2023,03,28,13,15,15.00
2023,03,28,13,16,15.00
2023,03,28,13,17,15.10
2023,03,28,13,18,15.10
2023,03,28,13,19,15.20
2023,03,28,13,20,15.30
2023,03,28,13,21,15.40
2023,03,28,13,22,15.50
2023,03,28,13,23,15.60
2023,03,28,13,24,15.70
2023,03,28,13,25,15.70
2023,03,28,13,26,15.70
2023,03,28,13,27,15.80
2023,03,28,13,28,15.80
2023,03,28,13,29,15.80
2023,03,28,13,30,15.80
2023,03,28,13,31,15.80
2023,03,28,13,32,15.80
2023,03,28,13,33,15.80
2023,03,28,13,34,15.80
2023,03,28,13,35,15.80
2023,03,28,13,36,15.80
2023,03,28,13,37,15.80
2023,03,28,13,38,15.80
2023,03,28,13,39,15.80
2023,03,28,13,40,15.80
2023,03,28,13,41,15.90
2023,03,28,13,42,15.90
2023,03,28,13,43,16.00
2023,03,28,13,44,16.00
2023,03,28,13,45,16.00
2023,03,28,13,46,16.00
2023,03,28,13,47,16.10
2023,03,28,13,48,16.10
2023,03,28,13,49,16.10
2023,03,28,13,50,16.20
2023,03,28,13,51,16.20
2023,03,28,13,52,16.20
2023,03,28,13,53,16.10
2023,03,28,13,54,16.10
2023,03,28,13,55,16.10
2023,03,28,13,56,16.10
2023,03,28,13,57,16.10
2023,03,28,13,58,16.10
2023,03,28,13,59,16.10
2023,03,28,14,00,16.10
2023,03,28,14,01,16.10
2023,03,28,14,02,16.10
2023,03,28,14,03,16.10
2023,03,28,14,04,16.10
2023,03,28,14,05,16.00
2023,03,28,14,06,15.80
2023,03,28,14,07,15.60
2023,03,28,14,08,15.50
2023,03,28,14,09,15.40
2023,03,28,14,10,15.40
2023,03,28,14,11,15.40
2023,03,28,14,12,15.50
2023,03,28,14,13,15.50
2023,03,28,14,14,15.60
2023,03,28,14,15,15.70
2023,03,28,14,16,15.70
2023,03,28,14,17,15.60
2023,03,28,14,18,15.50
2023,03,28,14,19,15.40
2023,03,28,14,20,15.30
2023,03,28,14,21,15.40
2023,03,28,14,22,15.40
2023,03,28,14,23,15.50
2023,03,28,14,24,15.50
2023,03,28,14,25,15.60
2023,03,28,14,26,15.70
2023,03,28,14,27,15.70
2023,03,28,14,28,15.80
2023,03,28,14,29,15.80
2023,03,28,14,30,15.90
2023,03,28,14,31,16.00
2023,03,28,14,32,16.10
2023,03,28,14,33,16.10
2023,03,28,14,34,16.20
2023,03,28,14,35,16.30
2023,03,28,14,36,16.30
2023,03,28,14,37,16.30
2023,03,28,14,38,16.30
2023,03,28,14,39,16.30
2023,03,28,14,40,16.30
2023,03,28,14,41,16.30
2023,03,28,14,42,16.40
2023,03,28,14,43,16.40
2023,03,28,14,44,16.30
2023,03,28,14,45,16.30
2023,03,28,14,46,16.20
2023,03,28,14,47,16.20
2023,03,28,14,48,16.10
2023,03,28,14,49,16.00
2023,03,28,14,50,15.90
2023,03,28,14,51,15.90
2023,03,28,14,52,16.00
2023,03,28,14,53,16.00
2023,03,28,14,54,16.10
2023,03,28,14,55,16.10
2023,03,28,14,56,16.10
2023,03,28,14,57,16.10
2023,03,28,14,58,16.10
2023,03,28,14,59,16.00
2023,03,28,15,00,16.00
2023,03,28,15,01,15.90
2023,03,28,15,02,16.00
2023,03,28,15,03,16.00
2023,03,28,15,04,16.00
2023,03,28,15,05,16.00
2023,03,28,15,06,16.10
2023,03,28,15,07,16.10
2023,03,28,15,08,16.20
2023,03,28,15,09,16.20
2023,03,28,15,10,16.10
2023,03,28,15,11,16.10
2023,03,28,15,12,16.10
2023,03,28,15,13,16.10
2023,03,28,15,14,16.10
2023,03,28,15,15,16.10
2023,03,28,15,16,16.20
2023,03,28,15,17,16.20
2023,03,28,15,18,16.20
2023,03,28,15,19,16.20
2023,03,28,15,20,16.30
2023,03,28,15,21,16.20
2023,03,28,15,22,16.20
2023,03,28,15,23,16.20
2023,03,28,15,24,16.20
2023,03,28,15,25,16.20
2023,03,28,15,26,16.20
2023,03,28,15,27,16.10
2023,03,28,15,28,16.00
2023,03,28,15,29,15.90
2023,03,28,15,30,15.80
2023,03,28,15,31,15.70
2023,03,28,15,32,15.60
2023,03,28,15,33,15.60
2023,03,28,15,34,15.60
2023,03,28,15,35,15.70
2023,03,28,15,36,15.70
2023,03,28,15,37,15.80
2023,03,28,15,38,15.80
2023,03,28,15,39,15.90
2023,03,28,15,40,15.90
2023,03,28,15,41,16.00
2023,03,28,15,42,16.00
2023,03,28,15,43,16.10
2023,03,28,15,44,16.10
2023,03,28,15,45,16.00
2023,03,28,15,46,16.00
2023,03,28,15,47,16.00
2023,03,28,15,48,15.90
2023,03,28,15,49,15.90
2023,03,28,15,50,15.90
2023,03,28,15,51,15.90
2023,03,28,15,52,16.00
2023,03,28,15,53,16.00
2023,03,28,15,54,16.00
2023,03,28,15,55,16.00
2023,03,28,15,56,16.00
2023,03,28,15,57,16.00
2023,03,28,15,58,15.90
2023,03,28,15,59,15.90
2023,03,28,16,00,15.90
2023,03,28,16,01,15.90
2023,03,28,16,02,15.90
2023,03,28,16,03,15.90
2023,03,28,16,04,15.90
2023,03,28,16,05,15.90
2023,03,28,16,06,15.90
2023,03,28,16,07,15.90
2023,03,28,16,08,15.80
2023,03,28,16,09,15.80
2023,03,28,16,10,15.80
2023,03,28,16,11,15.80
2023,03,28,16,12,15.80
2023,03,28,16,13,15.80
2023,03,28,16,14,15.90
2023,03,28,16,15,15.90
2023,03,28,16,16,15.90
2023,03,28,16,17,15.90
2023,03,28,16,18,15.90
2023,03,28,16,19,15.90
2023,03,28,16,20,16.00
2023,03,28,16,21,16.00
2023,03,28,16,22,15.90
2023,03,28,16,23,15.90
2023,03,28,16,24,15.80
2023,03,28,16,25,15.80
2023,03,28,16,26,15.80
2023,03,28,16,27,15.70
2023,03,28,16,28,15.70
2023,03,28,16,29,15.60
2023,03,28,16,30,15.60
2023,03,28,16,31,15.50
2023,03,28,16,32,15.40
2023,03,28,16,33,15.40
2023,03,28,16,34,15.40
2023,03,28,16,35,15.40
2023,03,28,16,36,15.40
2023,03,28,16,37,15.40
2023,03,28,16,38,15.40
2023,03,28,16,39,15.30
2023,03,28,16,40,15.30
2023,03,28,16,41,15.30
2023,03,28,16,42,15.30
2023,03,28,16,43,15.30
2023,03,28,16,44,15.30
2023,03,28,16,45,15.30
2023,03,28,16,46,15.20
2023,03,28,16,47,15.20
2023,03,28,16,48,15.10
2023,03,28,16,49,15.10
2023,03,28,16,50,15.10
2023,03,28,16,51,15.10
2023,03,28,16,52,15.10
2023,03,28,16,53,15.10
2023,03,28,16,54,15.00
2023,03,28,16,55,15.00
2023,03,28,16,56,14.90
2023,03,28,16,57,14.90
2023,03,28,16,58,14.90
2023,03,28,16,59,14.90
2023,03,28,17,00,14.90
2023,03,28,17,01,14.90
2023,03,28,17,02,14.90
2023,03,28,17,03,14.90
2023,03,28,17,04,14.90
2023,03,28,17,05,14.80
2023,03,28,17,06,14.90
2023,03,28,17,07,14.90
2023,03,28,17,08,14.90
2023,03,28,17,09,14.90
2023,03,28,17,10,14.90
2023,03,28,17,11,14.90
2023,03,28,17,12,14.90
2023,03,28,17,13,14.80
2023,03,28,17,14,14.80
2023,03,28,17,15,14.80
2023,03,28,17,16,14.80
2023,03,28,17,17,14.80
2023,03,28,17,18,14.80
2023,03,28,17,19,14.80
2023,03,28,17,20,14.80
2023,03,28,17,21,14.80
2023,03,28,17,22,14.80
2023,03,28,17,23,14.80
2023,03,28,17,24,14.80
2023,03,28,17,25,14.80
2023,03,28,17,26,14.80
2023,03,28,17,27,14.70
2023,03,28,17,28,14.70
2023,03,28,17,29,14.70
2023,03,28,17,30,14.70
2023,03,28,17,31,14.60
2023,03,28,17,32,14.70
2023,03,28,17,33,14.60
2023,03,28,17,34,14.60
2023,03,28,17,35,14.60
2023,03,28,17,36,14.60
2023,03,28,17,37,14.60
2023,03,28,17,38,14.60
2023,03,28,17,39,14.60
2023,03,28,17,40,14.60
2023,03,28,17,41,14.60
2023,03,28,17,42,14.60
2023,03,28,17,43,14.60
2023,03,28,17,44,14.60